Tiempo cada hora Abrucena

Hoy, 24 Octubre, Sábado

Tiempo Temperatura Precipitaciones Viento Presión Humedad
00:00 +5°C° 0 mm 2 mps 619 mmHg 72%
01:00 +5°C° 0 mm 2 mps 619 mmHg 72%
02:00 +6°C° 0 mm 1 mps 618 mmHg 71%
03:00 +5°C° 0 mm 1 mps 618 mmHg 70%
04:00 +5°C° 0 mm 1 mps 618 mmHg 70%
05:00 +5°C° 0 mm 1 mps 618 mmHg 70%
06:00 +4°C° 0 mm 1 mps 618 mmHg 70%
07:00 +6°C° 0 mm 1 mps 619 mmHg 64%
08:00 +6°C° 0 mm 0 mps 620 mmHg 58%
09:00 +8°C° 0 mm 0 mps 620 mmHg 52%
10:00 +10°C° 0 mm 1 mps 621 mmHg 48%
11:00 +11°C° 0 mm 1 mps 621 mmHg 44%
12:00 +12°C° 0 mm 2 mps 621 mmHg 40%
13:00 +12°C° 0 mm 2 mps 621 mmHg 40%
14:00 +13°C° 0 mm 2 mps 620 mmHg 39%
15:00 +12°C° 0 mm 3 mps 620 mmHg 39%
16:00 +12°C° 0 mm 2 mps 620 mmHg 44%
17:00 +10°C° 0 mm 2 mps 619 mmHg 49%
18:00 +8°C° 0 mm 2 mps 619 mmHg 54%
19:00 +8°C° 0 mm 2 mps 619 mmHg 56%
20:00 +7°C° 0 mm 2 mps 618 mmHg 59%
21:00 +8°C° 0 mm 1 mps 618 mmHg 61%
22:00 +7°C° 0 mm 1 mps 618 mmHg 60%
23:00 +7°C° 0 mm 1 mps 618 mmHg 59%

Mañana, 25 Octubre, Domingo

Tiempo Temperatura Precipitaciones Viento Presión Humedad
00:00 +6°C° 0 mm 2 mps 617 mmHg 58%
01:00 +6°C° 0 mm 2 mps 617 mmHg 57%
02:00 +5°C° 0 mm 2 mps 616 mmHg 56%
03:00 +5°C° 0 mm 2 mps 616 mmHg 55%
04:00 +4°C° 0 mm 2 mps 616 mmHg 54%
05:00 +4°C° 0 mm 2 mps 616 mmHg 53%
06:00 +4°C° 0 mm 2 mps 615 mmHg 52%
07:00 +6°C° 0 mm 2 mps 616 mmHg 45%
08:00 +8°C° 0 mm 2 mps 617 mmHg 39%
09:00 +9°C° 0 mm 2 mps 618 mmHg 32%
10:00 +12°C° 0 mm 2 mps 618 mmHg 30%
11:00 +12°C° 0 mm 3 mps 618 mmHg 28%
12:00 +13°C° 0 mm 3 mps 619 mmHg 26%
13:00 +13°C° 0 mm 3 mps 618 mmHg 27%
14:00 +13°C° 0 mm 3 mps 618 mmHg 29%
15:00 +13°C° 0 mm 3 mps 617 mmHg 31%
16:00 +12°C° 0 mm 3 mps 617 mmHg 39%
17:00 +10°C° 0 mm 3 mps 616 mmHg 46%
18:00 +8°C° 0 mm 3 mps 615 mmHg 54%
19:00 +8°C° 0 mm 3 mps 615 mmHg 55%
20:00 +7°C° 0 mm 3 mps 615 mmHg 56%
21:00 +7°C° 0 mm 3 mps 615 mmHg 57%
22:00 +7°C° 0 mm 3 mps 614 mmHg 62%
23:00 +7°C° 0 mm 3 mps 614 mmHg 66%

Pasado mañana, 26 Octubre, Lunes

Tiempo Temperatura Precipitaciones Viento Presión Humedad
00:00 +7°C° 0 mm 3 mps 614 mmHg 71%
01:00 +7°C° 0.1 mm 3 mps 614 mmHg 74%
02:00 +7°C° 0.1 mm 3 mps 614 mmHg 77%
03:00 +7°C° 0.1 mm 3 mps 614 mmHg 80%
04:00 +6°C° 0.1 mm 4 mps 614 mmHg 82%
05:00 +5°C° 0.1 mm 4 mps 614 mmHg 83%
06:00 +5°C° 0.1 mm 4 mps 613 mmHg 84%
07:00 +5°C° 0 mm 4 mps 614 mmHg 77%
08:00 +5°C° 0 mm 5 mps 614 mmHg 70%
09:00 +5°C° 0 mm 5 mps 615 mmHg 64%
10:00 +6°C° 0 mm 5 mps 615 mmHg 55%
11:00 +6°C° 0 mm 5 mps 615 mmHg 47%
12:00 +7°C° 0 mm 4 mps 616 mmHg 39%
13:00 +7°C° 0 mm 4 mps 615 mmHg 38%
14:00 +7°C° 0 mm 4 mps 615 mmHg 37%
15:00 +7°C° 0 mm 4 mps 615 mmHg 35%
16:00 +6°C° 0 mm 4 mps 615 mmHg 41%
17:00 +5°C° 0 mm 3 mps 615 mmHg 46%
18:00 +5°C° 0 mm 2 mps 615 mmHg 52%
19:00 +4°C° 0 mm 2 mps 615 mmHg 53%
20:00 +3°C° 0 mm 2 mps 615 mmHg 54%
21:00 +3°C° 0 mm 2 mps 615 mmHg 55%
22:00 +3°C° 0 mm 2 mps 615 mmHg 55%
23:00 +2°C° 0 mm 2 mps 615 mmHg 56%

, 27 Octubre, Martes

Tiempo Temperatura Precipitaciones Viento Presión Humedad
00:00 +2°C° 0 mm 2 mps 615 mmHg 56%
01:00 +2°C° 0 mm 2 mps 615 mmHg 57%
02:00 +3°C° 0 mm 1 mps 614 mmHg 58%
03:00 +2°C° 0 mm 1 mps 614 mmHg 59%
04:00 +2°C° 0 mm 1 mps 614 mmHg 61%
05:00 +2°C° 0 mm 1 mps 614 mmHg 62%
06:00 +2°C° 0 mm 1 mps 614 mmHg 64%
07:00 +3°C° 0 mm 1 mps 615 mmHg 59%
08:00 +4°C° 0 mm 1 mps 615 mmHg 54%
09:00 +6°C° 0 mm 1 mps 616 mmHg 49%
10:00 +7°C° 0 mm 1 mps 616 mmHg 45%
11:00 +8°C° 0 mm 1 mps 617 mmHg 40%
12:00 +8°C° 0 mm 2 mps 617 mmHg 36%
13:00 +9°C° 0 mm 2 mps 617 mmHg 35%
14:00 +9°C° 0 mm 2 mps 617 mmHg 34%
15:00 +9°C° 0 mm 2 mps 617 mmHg 34%
16:00 +8°C° 0 mm 2 mps 616 mmHg 39%
17:00 +7°C° 0 mm 2 mps 616 mmHg 44%
18:00 +6°C° 0 mm 2 mps 615 mmHg 49%
19:00 +6°C° 0 mm 2 mps 616 mmHg 50%
20:00 +6°C° 0 mm 2 mps 616 mmHg 50%
21:00 +6°C° 0 mm 1 mps 616 mmHg 51%
22:00 +6°C° 0 mm 1 mps 615 mmHg 52%
23:00 +6°C° 0 mm 1 mps 615 mmHg 53%

27 Octubre, Martes

Tiempo Temperatura Precipitaciones Viento Presión Humedad
00:00 +2°C° 0 mm 2 mps 615 mmHg 56%
01:00 +2°C° 0 mm 2 mps 615 mmHg 57%
02:00 +3°C° 0 mm 1 mps 614 mmHg 58%
03:00 +2°C° 0 mm 1 mps 614 mmHg 59%
04:00 +2°C° 0 mm 1 mps 614 mmHg 61%
05:00 +2°C° 0 mm 1 mps 614 mmHg 62%
06:00 +2°C° 0 mm 1 mps 614 mmHg 64%
07:00 +3°C° 0 mm 1 mps 615 mmHg 59%
08:00 +4°C° 0 mm 1 mps 615 mmHg 54%
09:00 +6°C° 0 mm 1 mps 616 mmHg 49%
10:00 +7°C° 0 mm 1 mps 616 mmHg 45%
11:00 +8°C° 0 mm 1 mps 617 mmHg 40%
12:00 +8°C° 0 mm 2 mps 617 mmHg 36%
13:00 +9°C° 0 mm 2 mps 617 mmHg 35%
14:00 +9°C° 0 mm 2 mps 617 mmHg 34%
15:00 +9°C° 0 mm 2 mps 617 mmHg 34%
16:00 +8°C° 0 mm 2 mps 616 mmHg 39%
17:00 +7°C° 0 mm 2 mps 616 mmHg 44%
18:00 +6°C° 0 mm 2 mps 615 mmHg 49%
19:00 +6°C° 0 mm 2 mps 616 mmHg 50%
20:00 +6°C° 0 mm 2 mps 616 mmHg 50%
21:00 +6°C° 0 mm 1 mps 616 mmHg 51%
22:00 +6°C° 0 mm 1 mps 615 mmHg 52%
23:00 +6°C° 0 mm 1 mps 615 mmHg 53%

28 Octubre, Miércoles

Tiempo Temperatura Precipitaciones Viento Presión Humedad
00:00 +6°C° 0 mm 1 mps 615 mmHg 54%
01:00 +6°C° 0 mm 1 mps 615 mmHg 57%
02:00 +6°C° 0 mm 1 mps 615 mmHg 59%
03:00 +5°C° 0 mm 1 mps 615 mmHg 61%
04:00 +5°C° 0 mm 1 mps 615 mmHg 62%
05:00 +5°C° 0 mm 1 mps 615 mmHg 64%
06:00 +5°C° 0 mm 1 mps 615 mmHg 65%
07:00 +7°C° 0 mm 1 mps 616 mmHg 61%
08:00 +9°C° 0 mm 1 mps 617 mmHg 56%
09:00 +11°C° 0 mm 1 mps 618 mmHg 51%
10:00 +12°C° 0 mm 1 mps 618 mmHg 49%
11:00 +13°C° 0 mm 1 mps 618 mmHg 47%
12:00 +14°C° 0 mm 1 mps 619 mmHg 45%
13:00 +14°C° 0 mm 2 mps 619 mmHg 44%
14:00 +14°C° 0 mm 2 mps 618 mmHg 44%
15:00 +14°C° 0 mm 2 mps 618 mmHg 44%
16:00 +13°C° 0 mm 1 mps 618 mmHg 49%
17:00 +11°C° 0 mm 1 mps 618 mmHg 54%
18:00 +9°C° 0 mm 0 mps 617 mmHg 60%
19:00 +9°C° 0 mm 0 mps 617 mmHg 61%
20:00 +9°C° 0 mm 0 mps 617 mmHg 62%
21:00 +9°C° 0 mm 1 mps 618 mmHg 62%
22:00 +9°C° 0 mm 1 mps 617 mmHg 64%
23:00 +7°C° 0 mm 0 mps 617 mmHg 65%

29 Octubre, Jueves

Tiempo Temperatura Precipitaciones Viento Presión Humedad
00:00 +7°C° 0 mm 0 mps 617 mmHg 66%
01:00 +7°C° 0 mm 0 mps 617 mmHg 67%
02:00 +7°C° 0 mm 0 mps 616 mmHg 68%
03:00 +6°C° 0 mm 0 mps 616 mmHg 69%
04:00 +6°C° 0 mm 0 mps 616 mmHg 69%
05:00 +6°C° 0 mm 0 mps 616 mmHg 69%
06:00 +6°C° 0 mm 0 mps 616 mmHg 69%
07:00 +9°C° 0 mm 1 mps 617 mmHg 62%
08:00 +10°C° 0 mm 1 mps 618 mmHg 55%
09:00 +12°C° 0 mm 1 mps 620 mmHg 49%
10:00 +13°C° 0 mm 1 mps 620 mmHg 46%
11:00 +14°C° 0 mm 2 mps 620 mmHg 43%
12:00 +14°C° 0 mm 2 mps 620 mmHg 41%
13:00 +15°C° 0 mm 2 mps 620 mmHg 40%
14:00 +15°C° 0 mm 2 mps 620 mmHg 40%
15:00 +15°C° 0 mm 2 mps 620 mmHg 40%
16:00 +13°C° 0 mm 2 mps 619 mmHg 45%
17:00 +12°C° 0 mm 1 mps 619 mmHg 50%
18:00 +11°C° 0 mm 1 mps 618 mmHg 55%
19:00 +10°C° 0 mm 1 mps 618 mmHg 56%
20:00 +10°C° 0 mm 1 mps 619 mmHg 57%
21:00 +9°C° 0 mm 1 mps 619 mmHg 59%
22:00 +9°C° 0 mm 1 mps 618 mmHg 60%
23:00 +7°C° 0 mm 0 mps 618 mmHg 61%
Mostrar más

Necesitamos Su Consentimiento

Meteoprog y nuestros Proveedores de Servicios pueden almacenar y acceder a sus datos personales como cookies, identificadores de dispositivo u otras tecnologías similares de su dispositivo y procesar dichos datos para personalizar contenido y anuncios, además de ofrecer funciones de redes sociales y analizar el tráfico.

  • Almacenar y/o acceder a información en su dispositivo

    Se puede almacenar o acceder a cookies, identificadores de dispositivo u otra información de su dispositivo para los fines anteriormente indicados.

  • Anuncios y contenido personalizados, medición de anuncios y contenido, percepciones del público, y desarrollo de productos

    Los anuncios y el contenido pueden personalizarse en base a su perfil. Se pueden añadir más datos para personalizar mejor los anuncios y contenidos. Se puede medir el rendimiento de los anuncios y contenidos. Se puede obtener la percepción sobre el público que ha visto los anuncios y contenidos. Dichos datos pueden usarse para desarrollar o mejorar la experiencia del usuario, sistemas y software.

Al hacer clic en ‘Estoy De Acuerdo’ usted permitirá el uso de las cookies, identificadores de dispositivo, balizas web u otras tecnologías similares indicadas. Su configuración puede cambiarse desde el navegador de su dispositivo.

Para ciertos fines, los intereses legítimos pueden ser considerados por encima del consentimiento. Puede leer más sobre ello en nuestra Política de Privacidad y Cookies.